Location: Akho
(42.3047°N, 44.1844°E)
Time: 09:15:19
(UTC+00:00)

STARLINK-37 - Pass Details

Date: 07 June 2020
Orbit: 434 x 435 km, 53.0° (Epoch: 06 July)

Event Time Altitude Azimuth Distance (km) Brightness Sun altitude
Exits shadow 23:12:56 34° 146° (SE) 740 4.0 -18.3°
Drops below altitude 10° 23:16:21 10° 69° (ENE) 1,543 6.7 -17.9°
Enters shadow 00:10:37 -73° 235° (SW) 12,640 10.4 -11.7°
Maximum altitude 00:50:17 34° 333° (NNW) 747 4.4 -6.3°
